CDT,Max TemperatureF,Mean TemperatureF,Min TemperatureF,Max Dew PointF,MeanDew PointF,Min DewpointF,Max Humidity, Mean Humidity, Min Humidity, Max Sea Level PressureIn, Mean Sea Level PressureIn, Min Sea Level PressureIn, Max VisibilityMiles, Mean VisibilityMiles, Min VisibilityMiles, Max Wind SpeedMPH, Mean Wind SpeedMPH, Max Gust SpeedMPH,PrecipitationIn, CloudCover, Events, WindDirDegrees
2013-10-1,86,74,62,70,66,63,100,81,51,30.00,29.95,29.90,10,8,1,12,3,17,0.00,2,,151
2013-10-2,84,75,66,68,66,64,100,80,54,30.04,29.98,29.91,10,9,4,9,4,,0.00,2,,146
2013-10-3,82,75,68,68,67,64,94,78,58,29.96,29.91,29.84,10,10,10,15,6,24,0.00,2,,154
2013-10-4,86,77,68,70,67,64,94,75,54,29.94,29.90,29.85,10,10,10,16,6,20,0.00,1,,155
2013-10-5,73,58,44,68,52,43,100,88,67,30.11,30.02,29.89,10,9,0,17,5,23,0.82,4,Fog,324
2013-10-6,62,50,39,46,42,39,100,76,45,30.06,30.03,30.00,10,9,0,16,3,21,0.00,0,Fog,295
2013-10-7,71,55,39,50,43,39,100,74,33,30.18,30.12,30.05,10,10,4,7,1,,0.00,0,,7
2013-10-8,71,56,42,50,45,43,100,72,35,30.17,30.12,30.06,10,10,10,13,2,20,0.00,0,,129
2013-10-9,77,60,44,52,47,43,100,70,38,30.14,30.08,30.04,10,10,10,7,1,,0.00,0,,139
2013-10-10,77,62,46,57,52,46,100,71,44,30.11,30.03,29.93,10,10,10,10,2,9,0.00,0,,148
2013-10-11,77,66,55,64,60,54,94,78,65,29.94,29.90,29.86,10,10,10,15,6,28,0.00,3,,153
2013-10-12,71,66,62,66,62,59,100,88,78,30.15,30.03,29.91,10,9,1,12,4,29,0.22,6,,47
2013-10-13,77,66,55,61,57,54,94,76,54,30.31,30.23,30.15,10,10,1,10,5,,0.28,5,,72
2013-10-14,62,60,59,61,55,46,100,83,59,30.23,30.10,29.97,10,8,0,13,6,17,0.99,4,Fog,120
2013-10-15,62,56,50,63,54,46,100,88,72,30.09,30.01,29.91,10,9,3,15,5,20,0.11,6,,334
2013-10-16,60,50,41,48,43,39,94,74,51,30.16,30.09,30.03,10,10,10,9,3,,0.01,1,,343
2013-10-17,64,50,35,46,42,36,100,82,45,30.11,30.05,29.99,10,8,0,7,1,,0.00,1,Fog,242
2013-10-18,66,52,37,52,44,37,100,88,56,30.12,30.04,29.99,10,8,2,14,2,18,0.18,3,,338
2013-10-19,59,47,35,39,36,34,100,79,39,30.18,30.11,30.05,10,10,7,13,5,18,0.01,3,,290
2013-10-20,68,52,35,45,40,36,100,72,35,30.05,29.98,29.89,10,10,10,15,2,18,0.00,1,,168
2013-10-21,53,43,33,48,42,34,100,87,54,30.14,30.06,29.98,10,9,2,10,2,18,0.18,2,,16
2013-10-22,68,50,32,46,40,32,100,79,43,30.12,30.06,29.99,10,10,1,13,2,20,0.00,0,,265
2013-10-23,64,48,33,43,39,34,100,74,39,30.19,30.11,30.02,10,10,7,8,1,,0.00,0,,131
2013-10-24,57,47,37,43,36,32,100,71,41,30.41,30.27,30.10,10,10,10,16,4,24,0.00,0,,23
2013-10-25,57,45,33,34,32,30,87,64,38,30.50,30.39,30.25,10,10,10,9,3,17,0.00,0,,120
2013-10-26,64,50,37,54,45,34,100,81,63,30.25,30.18,30.11,10,9,4,10,1,16,0.00,3,,214
2013-10-27,68,55,41,52,45,39,100,78,37,30.13,30.07,30.01,10,8,0,7,1,,0.00,1,Fog,278
2013-10-28,68,54,41,55,51,41,100,86,56,30.17,30.11,30.04,10,7,0,12,3,,0.00,5,Fog,127
2013-10-29,69,64,59,64,60,55,94,87,82,30.11,30.05,29.99,10,9,5,15,9,24,0.02,6,,155
2013-10-30,68,64,60,64,62,59,100,90,83,30.04,29.96,29.82,10,7,1,16,5,28,0.86,7,,153
2013-10-31,69,56,42,63,55,41,100,87,46,29.82,29.69,29.57,10,9,1,23,7,31,0.41,5,,210